• In Belgium
  • List of Countries
  • For 7 days
  • Water Temperature
  • Satellite Maps
  • Weather Map
  • Weather Widgets
  • user-avatar
    Login

    Hourly Weather Kalmthout

    Today, 17 October, Wednesday

    Time Temperature Precipitation Wind Pressure Humidity
    00:00 +16°C° 0 mm 2 mps 762 mmHg 73%
    01:00 +16°C° 0 mm 2 mps 762 mmHg 77%
    02:00 +15°C° 0 mm 2 mps 762 mmHg 81%
    03:00 +15°C° 0 mm 2 mps 762 mmHg 85%
    04:00 +15°C° 0 mm 2 mps 762 mmHg 87%
    05:00 +14°C° 0 mm 1 mps 762 mmHg 89%
    06:00 +14°C° 0 mm 1 mps 762 mmHg 90%
    07:00 +15°C° 0 mm 2 mps 762 mmHg 86%
    08:00 +17°C° 0 mm 2 mps 762 mmHg 81%
    09:00 +18°C° 0 mm 2 mps 763 mmHg 77%
    10:00 +19°C° 0 mm 2 mps 763 mmHg 73%
    11:00 +20°C° 0 mm 2 mps 763 mmHg 68%
    12:00 +20°C° 0 mm 2 mps 763 mmHg 64%
    13:00 +20°C° 0 mm 2 mps 763 mmHg 65%
    14:00 +20°C° 0 mm 2 mps 763 mmHg 66%
    15:00 +20°C° 0 mm 2 mps 763 mmHg 66%
    16:00 +18°C° 0 mm 2 mps 763 mmHg 71%
    17:00 +17°C° 0 mm 2 mps 763 mmHg 76%
    18:00 +15°C° 0 mm 2 mps 763 mmHg 81%
    19:00 +15°C° 0 mm 2 mps 763 mmHg 83%
    20:00 +14°C° 0 mm 2 mps 764 mmHg 84%
    21:00 +14°C° 0 mm 2 mps 764 mmHg 86%
    22:00 +13°C° 0 mm 2 mps 764 mmHg 87%
    23:00 +13°C° 0 mm 2 mps 765 mmHg 88%

    Tomorrow, 18 October, Thursday

    Time Temperature Precipitation Wind Pressure Humidity
    00:00 +13°C° 0 mm 2 mps 765 mmHg 89%
    01:00 +13°C° 0 mm 2 mps 765 mmHg 90%
    02:00 +13°C° 0 mm 2 mps 765 mmHg 91%
    03:00 +13°C° 0 mm 2 mps 765 mmHg 91%
    04:00 +11°C° 0 mm 3 mps 765 mmHg 92%
    05:00 +11°C° 0 mm 3 mps 765 mmHg 93%
    06:00 +11°C° 0 mm 3 mps 766 mmHg 93%
    07:00 +12°C° 0 mm 3 mps 766 mmHg 89%
    08:00 +13°C° 0 mm 4 mps 766 mmHg 84%
    09:00 +14°C° 0 mm 4 mps 766 mmHg 79%
    10:00 +15°C° 0 mm 4 mps 766 mmHg 75%
    11:00 +17°C° 0 mm 4 mps 766 mmHg 71%
    12:00 +17°C° 0 mm 4 mps 766 mmHg 67%
    13:00 +17°C° 0 mm 4 mps 766 mmHg 67%
    14:00 +17°C° 0 mm 4 mps 766 mmHg 67%
    15:00 +17°C° 0 mm 4 mps 766 mmHg 67%
    16:00 +15°C° 0 mm 4 mps 766 mmHg 70%
    17:00 +14°C° 0 mm 4 mps 766 mmHg 74%
    18:00 +13°C° 0 mm 4 mps 767 mmHg 77%
    19:00 +12°C° 0 mm 4 mps 767 mmHg 79%
    20:00 +12°C° 0 mm 4 mps 767 mmHg 80%
    21:00 +11°C° 0 mm 4 mps 767 mmHg 82%
    22:00 +11°C° 0 mm 4 mps 767 mmHg 83%
    23:00 +10°C° 0 mm 4 mps 767 mmHg 84%

    Day after tomorrow, 19 October, Friday

    Time Temperature Precipitation Wind Pressure Humidity
    00:00 +8°C° 0 mm 4 mps 767 mmHg 84%
    01:00 +9°C° 0 mm 3 mps 767 mmHg 85%
    02:00 +8°C° 0 mm 3 mps 767 mmHg 86%
    03:00 +8°C° 0 mm 3 mps 767 mmHg 86%
    04:00 +8°C° 0 mm 3 mps 767 mmHg 88%
    05:00 +7°C° 0 mm 3 mps 767 mmHg 89%
    06:00 +7°C° 0 mm 3 mps 767 mmHg 90%
    07:00 +9°C° 0 mm 3 mps 767 mmHg 85%
    08:00 +10°C° 0 mm 3 mps 768 mmHg 80%
    09:00 +11°C° 0 mm 3 mps 768 mmHg 75%
    10:00 +13°C° 0 mm 3 mps 768 mmHg 69%
    11:00 +14°C° 0 mm 3 mps 768 mmHg 64%
    12:00 +17°C° 0 mm 2 mps 768 mmHg 59%
    13:00 +17°C° 0 mm 3 mps 768 mmHg 58%
    14:00 +17°C° 0 mm 3 mps 767 mmHg 57%
    15:00 +17°C° 0 mm 3 mps 767 mmHg 56%
    16:00 +14°C° 0 mm 3 mps 768 mmHg 60%
    17:00 +13°C° 0 mm 3 mps 768 mmHg 64%
    18:00 +11°C° 0 mm 3 mps 768 mmHg 68%
    19:00 +11°C° 0 mm 3 mps 769 mmHg 69%
    20:00 +10°C° 0 mm 3 mps 769 mmHg 70%
    21:00 +9°C° 0 mm 3 mps 769 mmHg 72%
    22:00 +9°C° 0 mm 2 mps 769 mmHg 72%
    23:00 +9°C° 0 mm 2 mps 770 mmHg 72%

    20 October, Saturday

    Time Temperature Precipitation Wind Pressure Humidity
    00:00 +9°C° 0 mm 2 mps 770 mmHg 72%
    01:00 +8°C° 0 mm 2 mps 770 mmHg 73%
    02:00 +8°C° 0 mm 2 mps 770 mmHg 74%
    03:00 +7°C° 0 mm 2 mps 770 mmHg 76%
    04:00 +7°C° 0 mm 2 mps 770 mmHg 78%
    05:00 +6°C° 0 mm 2 mps 771 mmHg 80%
    06:00 +6°C° 0 mm 2 mps 771 mmHg 82%
    07:00 +7°C° 0 mm 3 mps 771 mmHg 77%
    08:00 +9°C° 0 mm 3 mps 772 mmHg 71%
    09:00 +10°C° 0 mm 3 mps 772 mmHg 66%
    10:00 +12°C° 0 mm 3 mps 772 mmHg 60%
    11:00 +14°C° 0 mm 2 mps 772 mmHg 54%
    12:00 +15°C° 0 mm 2 mps 772 mmHg 48%
    13:00 +16°C° 0 mm 2 mps 772 mmHg 47%
    14:00 +16°C° 0 mm 2 mps 772 mmHg 47%
    15:00 +16°C° 0 mm 2 mps 772 mmHg 47%
    16:00 +14°C° 0 mm 2 mps 772 mmHg 52%
    17:00 +12°C° 0 mm 2 mps 772 mmHg 57%
    18:00 +10°C° 0 mm 2 mps 772 mmHg 61%
    19:00 +9°C° 0 mm 2 mps 772 mmHg 64%
    20:00 +8°C° 0 mm 2 mps 772 mmHg 66%
    21:00 +8°C° 0 mm 2 mps 772 mmHg 69%
    22:00 +8°C° 0 mm 2 mps 772 mmHg 71%
    23:00 +8°C° 0 mm 1 mps 772 mmHg 73%

    21 October, Sunday

    Time Temperature Precipitation Wind Pressure Humidity
    00:00 +8°C° 0 mm 1 mps 772 mmHg 75%
    01:00 +8°C° 0 mm 1 mps 772 mmHg 76%
    02:00 +7°C° 0 mm 1 mps 772 mmHg 78%
    03:00 +7°C° 0 mm 1 mps 771 mmHg 79%
    04:00 +7°C° 0 mm 1 mps 771 mmHg 80%
    05:00 +7°C° 0 mm 1 mps 771 mmHg 80%
    06:00 +7°C° 0 mm 1 mps 771 mmHg 81%
    07:00 +8°C° 0 mm 1 mps 771 mmHg 74%
    08:00 +10°C° 0 mm 1 mps 771 mmHg 66%
    09:00 +12°C° 0 mm 1 mps 771 mmHg 59%
    10:00 +13°C° 0 mm 1 mps 770 mmHg 54%
    11:00 +15°C° 0 mm 1 mps 770 mmHg 49%
    12:00 +16°C° 0 mm 1 mps 770 mmHg 44%
    13:00 +18°C° 0 mm 1 mps 769 mmHg 44%
    14:00 +18°C° 0 mm 1 mps 769 mmHg 45%
    15:00 +18°C° 0 mm 1 mps 768 mmHg 46%
    16:00 +15°C° 0 mm 1 mps 768 mmHg 51%
    17:00 +13°C° 0 mm 1 mps 768 mmHg 57%
    18:00 +11°C° 0 mm 1 mps 769 mmHg 62%
    19:00 +11°C° 0 mm 1 mps 769 mmHg 66%
    20:00 +10°C° 0 mm 2 mps 769 mmHg 69%
    21:00 +9°C° 0 mm 2 mps 769 mmHg 73%
    22:00 +9°C° 0 mm 2 mps 769 mmHg 76%
    23:00 +9°C° 0 mm 2 mps 769 mmHg 79%

    22 October, Monday

    Time Temperature Precipitation Wind Pressure Humidity
    00:00 +10°C° 0 mm 2 mps 770 mmHg 82%
    01:00 +10°C° 0 mm 3 mps 770 mmHg 82%
    02:00 +11°C° 0 mm 3 mps 770 mmHg 82%
    03:00 +12°C° 0 mm 4 mps 770 mmHg 83%
    04:00 +11°C° 0 mm 4 mps 771 mmHg 83%
    05:00 +11°C° 0 mm 4 mps 771 mmHg 83%
    06:00 +11°C° 0 mm 4 mps 771 mmHg 83%
    07:00 +11°C° 0 mm 4 mps 772 mmHg 78%
    08:00 +12°C° 0 mm 5 mps 772 mmHg 72%
    09:00 +12°C° 0 mm 5 mps 773 mmHg 67%
    10:00 +13°C° 0 mm 5 mps 773 mmHg 63%
    11:00 +13°C° 0 mm 5 mps 773 mmHg 60%
    12:00 +13°C° 0 mm 5 mps 773 mmHg 57%
    13:00 +13°C° 0 mm 5 mps 773 mmHg 57%
    14:00 +12°C° 0 mm 5 mps 773 mmHg 58%
    15:00 +12°C° 0 mm 5 mps 772 mmHg 59%
    16:00 +12°C° 0 mm 4 mps 773 mmHg 60%
    17:00 +11°C° 0 mm 3 mps 773 mmHg 62%
    18:00 +11°C° 0 mm 3 mps 773 mmHg 63%
    19:00 +11°C° 0 mm 3 mps 773 mmHg 64%
    20:00 +10°C° 0 mm 3 mps 773 mmHg 66%
    21:00 +10°C° 0 mm 3 mps 773 mmHg 67%
    22:00 +10°C° 0 mm 3 mps 773 mmHg 69%
    23:00 +10°C° 0 mm 3 mps 772 mmHg 71%
    Show more